This demonstration page uses our WeatherBlox Daily Observations layout. Learn more.

Left ArrowRight Arrow

38.80484, -77.04692

Hourly Observations for December 4, 2021

Temp ( °F °C ) Dew Point ( °F °C ) Humidity (%) Winds ( mph kmh ) Pressure ( in mb ) Visibility ( mi km ) Precip ( " mm )
12:52 am 00:52 Cloudy 44 6.7 35 1.7 71 71 Calm 30.09 1019 10 16 0.00 0.00
1:52 am 01:52 Cloudy 45 7.2 36 2.2 71 71 Calm 30.09 1019 10 16 0.00 0.00
2:52 am 02:52 Cloudy 44 6.7 36 2.2 73 73 SSW 3 6 30.09 1019 10 16 0.00 0.00
3:52 am 03:52 Mostly Cloudy 45 7.2 35 1.7 68 68 Calm 30.08 1019 10 16 0.00 0.00
4:52 am 04:52 Mostly Cloudy 43 6.1 37 2.8 80 80 NNE 3 6 30.07 1018 10 16 0.00 0.00
5:52 am 05:52 Mostly Cloudy 43 6.1 34 1.1 71 71 N 5 7 30.08 1019 10 16 0.00 0.00
6:52 am 06:52 Partly Cloudy 43 6.1 34 1.1 71 71 NNW 5 7 30.08 1019 10 16 0.00 0.00
7:52 am 07:52 Mostly Cloudy 42 5.6 34 1.1 73 73 N 5 7 30.09 1019 10 16 0.00 0.00
8:52 am 08:52 Mostly Cloudy 48 8.9 33 0.6 56 56 NE 7 11 30.11 1020 10 16 0.00 0.00
9:52 am 09:52 Mostly Cloudy 50 10 32 0 50 50 NE 5 7 30.13 1020 10 16 0.00 0.00
10:52 am 10:52 Mostly Cloudy 54 12.2 31 -0.6 42 42 N 6 9 30.14 1021 10 16 0.00 0.00
11:52 am 11:52 Sunny 56 13.3 30 -1.1 37 37 ENE 5 7 30.12 1020 10 16 0.00 0.00
12:52 pm 12:52 Mostly Cloudy 56 13.3 30 -1.1 37 37 ENE 3 6 30.11 1020 10 16 0.00 0.00
1:52 pm 13:52 Mostly Cloudy 58 14.4 31 -0.6 36 36 E 3 6 30.09 1019 10 16 0.00 0.00
2:52 pm 14:52 Mostly Cloudy 58 14.4 32 0 38 38 ENE 3 6 30.09 1019 10 16 0.00 0.00
3:52 pm 15:52 Mostly Cloudy 57 13.9 30 -1.1 36 36 NW 9 15 30.12 1020 10 16 0.00 0.00
4:52 pm 16:52 Mostly Cloudy 54 12.2 30 -1.1 40 40 Calm 30.12 1020 10 16 0.00 0.00
5:52 pm 17:52 Mostly Cloudy 53 11.7 31 -0.6 43 43 Calm 30.14 1021 10 16 0.00 0.00
6:52 pm 18:52 Mostly Cloudy 51 10.6 33 0.6 50 50 VRB 3 6 30.16 1021 10 16 0.00 0.00
7:52 pm 19:52 Cloudy 47 8.3 36 2.2 66 66 SSE 3 6 30.18 1022 10 16 0.00 0.00
8:52 pm 20:52 Mostly Cloudy 46 7.8 37 2.8 71 71 S 3 6 30.20 1023 10 16 0.00 0.00
9:52 pm 21:52 Mostly Cloudy 50 10 32 0 50 50 NNW 6 9 30.23 1024 10 16 0.00 0.00
10:52 pm 22:52 Mostly Cloudy 45 7.2 36 2.2 71 71 S 3 6 30.22 1024 10 16 0.00 0.00
11:52 pm 23:52 Partly Cloudy 45 7.2 35 1.7 68 68 Calm 30.24 1024 10 16 0.00 0.00

Powered by AerisWeather